�������l�o���
Date,Time,MP-1(��Sv/h),MP-2(��Sv/h),MP-3(��Sv/h),MP-4(��Sv/h),MP-5(��Sv/h),MP-6(��Sv/h),MP-7(��Sv/h),MP-8(��Sv/h),����,����(m/s),���J
2017/12/08,00:00,0.879,1.447,0.916,1.720,1.169,0.491,0.871,0.839,��쐼,1.9,��
2017/12/08,00:10,0.880,1.446,0.915,1.719,1.169,0.491,0.874,0.840,��쐼,2.3,��
2017/12/08,00:20,0.879,1.449,0.918,1.721,1.170,0.492,0.874,0.838,��,2.0,��
2017/12/08,00:30,0.879,1.447,0.917,1.718,1.169,0.491,0.872,0.839,��,4.7,��
2017/12/08,00:40,0.880,1.447,0.918,1.720,1.170,0.490,0.873,0.841,��,4.7,��
2017/12/08,00:50,0.879,1.449,0.917,1.718,1.170,0.492,0.874,0.840,��,4.2,��
2017/12/08,01:00,0.880,1.447,0.919,1.720,1.168,0.492,0.873,0.838,��,4.3,��
2017/12/08,01:10,0.879,1.444,0.918,1.719,1.170,0.492,0.873,0.839,���쐼,4.5,��
2017/12/08,01:20,0.880,1.447,0.917,1.718,1.170,0.491,0.873,0.840,�쐼,3.1,��
2017/12/08,01:30,0.880,1.445,0.917,1.721,1.168,0.491,0.874,0.838,��쐼,1.5,��
2017/12/08,01:40,0.879,1.445,0.916,1.720,1.170,0.491,0.874,0.839,��,1.2,��
2017/12/08,01:50,0.879,1.446,0.917,1.721,1.170,0.491,0.874,0.840,��쐼,1.4,��
2017/12/08,02:00,0.880,1.447,0.917,1.719,1.170,0.492,0.872,0.839,���쐼,2.2,��
2017/12/08,02:10,0.880,1.447,0.917,1.718,1.170,0.492,0.874,0.840,���쐼,1.7,��
2017/12/08,02:20,0.879,1.445,0.918,1.718,1.170,0.492,0.874,0.837,��,2.5,��
2017/12/08,02:30,0.879,1.448,0.916,1.718,1.169,0.492,0.874,0.839,���쐼,1.4,��
2017/12/08,02:40,0.880,1.448,0.918,1.718,1.172,0.492,0.873,0.841,��,1.2,��
2017/12/08,02:50,0.880,1.446,0.916,1.719,1.170,0.492,0.874,0.838,��,0.9,��
2017/12/08,03:00,0.878,1.446,0.917,1.719,1.168,0.492,0.877,0.841,��,3.5,��
2017/12/08,03:10,0.878,1.447,0.917,1.716,1.168,0.493,0.874,0.839,��,5.7,��
2017/12/08,03:20,0.879,1.447,0.917,1.718,1.171,0.492,0.874,0.839,��,3.1,��
2017/12/08,03:30,0.879,1.445,0.916,1.718,1.168,0.491,0.875,0.838,��,1.2,��
2017/12/08,03:40,0.879,1.448,0.916,1.720,1.169,0.490,0.873,0.839,���k��,1.1,��
2017/12/08,03:50,0.878,1.447,0.916,1.717,1.169,0.492,0.874,0.839,���k��,2.6,��
2017/12/08,04:00,0.879,1.447,0.917,1.718,1.169,0.492,0.873,0.839,�k��,1.9,��
2017/12/08,04:10,0.881,1.446,0.916,1.717,1.169,0.492,0.874,0.838,�k,1.1,��
2017/12/08,04:20,0.880,1.447,0.917,1.717,1.169,0.493,0.874,0.839,�k�k��,1.4,��
2017/12/08,04:30,0.879,1.448,0.917,1.721,1.167,0.492,0.873,0.839,�k�k��,1.7,��
2017/12/08,04:40,0.879,1.446,0.916,1.720,1.168,0.494,0.872,0.840,�k,1.2,��
2017/12/08,04:50,0.879,1.446,0.916,1.721,1.170,0.493,0.875,0.839,�k��,1.4,��
2017/12/08,05:00,0.879,1.447,0.917,1.719,1.168,0.492,0.872,0.840,�k,1.5,��
2017/12/08,05:10,0.881,1.447,0.917,1.721,1.168,0.491,0.873,0.840,�k�k��,2.0,��
2017/12/08,05:20,0.880,1.449,0.917,1.723,1.170,0.492,0.873,0.839,�k�k��,3.1,��
2017/12/08,05:30,0.879,1.448,0.919,1.718,1.169,0.492,0.874,0.839,�k�k��,3.2,��
2017/12/08,05:40,0.881,1.447,0.916,1.718,1.170,0.491,0.873,0.839,�k��,1.7,��
2017/12/08,05:50,0.879,1.445,0.916,1.718,1.170,0.491,0.875,0.840,���쐼,0.6,��
2017/12/08,06:00,0.879,1.447,0.917,1.720,1.167,0.493,0.874,0.838,�쐼,2.0,��
2017/12/08,06:10,0.879,1.450,0.918,1.721,1.166,0.492,0.874,0.840,���쐼,2.3,��
2017/12/08,06:20,0.879,1.449,0.917,1.718,1.167,0.493,0.874,0.840,���쐼,3.1,��
2017/12/08,06:30,0.882,1.448,0.915,1.718,1.167,0.491,0.872,0.841,�쐼,2.6,��
2017/12/08,06:40,0.880,1.445,0.916,1.720,1.168,0.492,0.873,0.840,��쐼,2.5,��
2017/12/08,06:50,0.880,1.446,0.914,1.719,1.169,0.492,0.874,0.839,�쐼,2.0,��
2017/12/08,07:00,0.878,1.445,0.917,1.720,1.171,0.500,0.874,0.840,��,0.6,��
2017/12/08,07:10,0.878,1.447,0.917,1.718,1.168,0.491,0.873,0.839,�k,1.7,��
2017/12/08,07:20,0.879,1.447,0.917,1.719,1.170,0.493,0.875,0.842,�k�k��,4.1,��
2017/12/08,07:30,0.881,1.448,0.917,1.718,1.169,0.492,0.875,0.840,�k��,6.0,��
2017/12/08,07:40,0.879,1.447,0.918,1.722,1.170,0.492,0.875,0.842,�k��,5.5,��
2017/12/08,07:50,0.882,1.449,0.918,1.721,1.168,0.493,0.876,0.841,�k��,7.3,��
2017/12/08,08:00,0.880,1.447,0.919,1.723,1.170,0.491,0.877,0.841,�k��,6.0,��
2017/12/08,08:10,0.882,1.448,0.917,1.723,1.171,0.492,0.876,0.840,�k��,4.4,��
2017/12/08,08:20,0.882,1.448,0.916,1.723,1.171,0.493,0.877,0.841,�k��,4.4,��
2017/12/08,08:30,0.882,1.447,0.921,1.723,1.171,0.492,0.877,0.842,�k��,3.0,��
2017/12/08,08:40,0.883,1.448,0.918,1.725,1.173,0.489,0.879,0.841,�k��,2.5,��
2017/12/08,08:50,0.881,1.444,0.921,1.722,1.172,0.489,0.875,0.841,�k��,2.3,��
2017/12/08,09:00,0.884,1.447,0.921,1.722,1.171,0.490,0.876,0.841,���k��,2.3,��
2017/12/08,09:10,0.885,1.447,0.919,1.725,1.172,0.489,0.876,0.841,���k��,2.2,��
2017/12/08,09:20,0.884,1.449,0.919,1.726,1.171,0.490,0.875,0.842,��,2.6,��
2017/12/08,09:30,0.885,1.448,0.921,1.725,1.172,0.492,0.875,0.841,���k��,1.9,��
2017/12/08,09:40,0.883,1.449,0.920,1.723,1.172,0.493,0.874,0.842,���k��,2.2,��
2017/12/08,09:50,0.883,1.446,0.921,1.724,1.175,0.495,0.873,0.841,�k��,2.3,��
2017/12/08,10:00,0.885,1.448,0.922,1.725,1.172,0.493,0.874,0.840,�k��,2.6,��
2017/12/08,10:10,0.886,1.451,0.924,1.727,1.173,0.495,0.876,0.838,�k�k��,2.3,��
2017/12/08,10:20,0.883,1.448,0.922,1.726,1.175,0.495,0.875,0.838,�k,0.6,��
2017/12/08,10:30,0.884,1.450,0.921,1.727,1.175,0.493,0.875,0.837,�k,2.2,��
2017/12/08,10:40,0.885,1.446,0.921,1.726,1.173,0.494,0.873,0.837,�k�k��,4.5,��
2017/12/08,10:50,0.871,1.448,0.922,1.729,1.174,0.493,0.873,0.837,�k�k��,4.1,��
2017/12/08,11:00,0.877,1.450,0.923,1.728,1.174,0.493,0.872,0.838,�k,4.3,��
2017/12/08,11:10,0.876,1.451,0.920,1.725,1.178,0.493,0.872,0.839,�k,5.2,��
2017/12/08,11:20,0.877,1.446,0.924,1.728,1.176,0.495,0.875,0.839,�k,6.4,��
2017/12/08,11:30,0.886,1.450,0.921,1.729,1.176,0.494,0.873,0.837,�k,6.3,��
2017/12/08,11:40,0.897,1.450,0.921,1.727,1.176,0.493,0.871,0.838,�k�k��,6.7,��
2017/12/08,11:50,0.887,1.448,0.925,1.728,1.177,0.494,0.873,0.840,�k�k��,6.8,��
2017/12/08,12:00,0.884,1.446,0.924,1.726,1.176,0.493,0.874,0.842,�k�k��,7.8,��
2017/12/08,12:10,0.886,1.451,0.920,1.728,1.179,0.494,0.873,0.842,�k�k��,7.5,��
2017/12/08,12:20,0.885,1.451,0.925,1.727,1.175,0.494,0.871,0.844,�k,9.8,��
2017/12/08,12:30,0.886,1.452,0.920,1.729,1.177,0.493,0.871,0.842,�k,9.1,��
2017/12/08,12:40,0.885,1.450,0.920,1.728,1.176,0.494,0.871,0.844,-,-,��
2017/12/08,12:50,0.884,1.451,0.921,1.726,1.177,0.491,0.872,0.843,-,-,��
2017/12/08,13:00,0.886,1.449,0.920,1.727,1.178,0.495,0.873,0.842,-,-,��
2017/12/08,13:10,0.886,1.451,0.921,1.727,1.178,0.494,0.874,0.843,-,-,��
2017/12/08,13:20,0.886,1.451,0.919,1.727,1.176,0.494,0.873,0.843,-,-,��
2017/12/08,13:30,0.887,1.447,0.921,1.728,1.177,0.495,0.875,0.845,-,-,��
2017/12/08,13:40,0.886,1.451,0.919,1.725,1.177,0.493,0.875,0.843,-,-,��
2017/12/08,13:50,0.887,1.453,0.923,1.726,1.175,0.491,0.874,0.844,-,-,��
2017/12/08,14:00,0.884,1.451,0.920,1.729,1.177,0.492,0.877,0.842,-,-,��
2017/12/08,14:10,0.886,1.449,0.921,1.727,1.179,0.492,0.876,0.841,-,-,��
2017/12/08,14:20,0.884,1.454,0.922,1.728,1.176,0.493,0.875,0.842,-,-,��
2017/12/08,14:30,0.885,1.453,0.924,1.727,1.179,0.493,0.874,0.842,-,-,��
2017/12/08,14:40,0.885,1.453,0.920,1.728,1.176,0.491,0.875,0.843,-,-,�L
2017/12/08,14:50,0.887,1.451,0.922,1.730,1.177,0.495,0.875,0.842,�k,7.1,�L
2017/12/08,15:00,0.886,1.453,0.922,1.729,1.179,0.494,0.876,0.842,�k,7.3,�L
2017/12/08,15:10,0.886,1.453,0.920,1.726,1.179,0.492,0.876,0.843,�k�k��,8.4,�L
2017/12/08,15:20,0.887,1.455,0.924,1.730,1.175,0.493,0.876,0.842,�k�k��,7.8,�L
2017/12/08,15:30,0.885,1.455,0.920,1.726,1.178,0.493,0.875,0.843,�k�k��,7.5,�L
2017/12/08,15:40,0.884,1.453,0.923,1.730,1.178,0.493,0.875,0.843,�k�k��,7.2,�L
2017/12/08,15:50,0.883,1.455,0.920,1.732,1.178,0.494,0.874,0.843,�k�k��,6.8,�L
2017/12/08,16:00,0.884,1.458,0.922,1.730,1.178,0.493,0.874,0.844,�k�k��,6.8,�L
2017/12/08,16:10,0.884,1.455,0.921,1.726,1.179,0.493,0.875,0.844,�k�k��,8.2,�L
2017/12/08,16:20,0.884,1.458,0.921,1.729,1.176,0.493,0.875,0.840,�k�k��,8.9,��
2017/12/08,16:30,0.884,1.456,0.921,1.729,1.178,0.493,0.875,0.841,�k�k��,8.7,��
2017/12/08,16:40,0.882,1.458,0.921,1.729,1.178,0.492,0.876,0.843,�k�k��,8.4,��
2017/12/08,16:50,0.883,1.457,0.922,1.730,1.177,0.491,0.874,0.841,�k�k��,10.8,��
2017/12/08,17:00,0.883,1.455,0.920,1.729,1.178,0.493,0.875,0.842,�k��,11.4,�L
2017/12/08,17:10,0.884,1.458,0.920,1.728,1.180,0.493,0.876,0.841,�k�k��,10.2,�L
2017/12/08,17:20,0.885,1.459,0.921,1.727,1.179,0.493,0.876,0.843,�k��,11.3,��
2017/12/08,17:30,0.883,1.458,0.919,1.730,1.177,0.492,0.877,0.842,�k�k��,10.5,��
2017/12/08,17:40,0.884,1.457,0.922,1.731,1.177,0.492,0.877,0.842,�k�k��,10.9,��
2017/12/08,17:50,0.884,1.458,0.920,1.729,1.179,0.491,0.877,0.842,�k�k��,9.7,��
2017/12/08,18:00,0.885,1.456,0.919,1.731,1.179,0.492,0.875,0.842,�k��,9.7,��
2017/12/08,18:10,0.884,1.459,0.920,1.728,1.177,0.492,0.876,0.842,�k��,8.7,�L
2017/12/08,18:20,0.885,1.458,0.921,1.731,1.178,0.492,0.877,0.841,�k�k��,8.7,�L
2017/12/08,18:30,0.884,1.460,0.921,1.731,1.178,0.494,0.876,0.843,�k�k��,7.5,�L
2017/12/08,18:40,0.884,1.458,0.924,1.729,1.178,0.494,0.876,0.842,�k�k��,7.9,�L
2017/12/08,18:50,0.883,1.459,0.922,1.730,1.179,0.492,0.878,0.844,�k�k��,7.3,�L
2017/12/08,19:00,0.883,1.456,0.920,1.731,1.177,0.495,0.876,0.840,�k��,8.0,�L
2017/12/08,19:10,0.883,1.459,0.924,1.736,1.178,0.494,0.877,0.841,�k�k��,7.4,�L
2017/12/08,19:20,0.884,1.459,0.921,1.731,1.178,0.495,0.876,0.842,�k�k��,7.2,�L
2017/12/08,19:30,0.886,1.456,0.923,1.730,1.179,0.495,0.876,0.842,�k�k��,6.4,�L
2017/12/08,19:40,0.883,1.457,0.924,1.730,1.179,0.495,0.876,0.842,�k�k��,4.6,�L
2017/12/08,19:50,0.886,1.457,0.925,1.730,1.177,0.497,0.877,0.844,�k�k��,3.5,��
2017/12/08,20:00,0.881,1.457,0.921,1.730,1.176,0.496,0.874,0.844,�k�k��,3.3,��
2017/12/08,20:10,0.883,1.454,0.921,1.727,1.176,0.494,0.875,0.843,�k,4.4,��
2017/12/08,20:20,0.884,1.455,0.921,1.728,1.174,0.494,0.875,0.845,�k�k��,5.3,��
2017/12/08,20:30,0.880,1.455,0.920,1.728,1.173,0.494,0.874,0.842,�k�k��,5.1,��
2017/12/08,20:40,0.882,1.453,0.919,1.730,1.174,0.493,0.876,0.840,�k�k��,6.2,��
2017/12/08,20:50,0.879,1.454,0.920,1.728,1.174,0.493,0.875,0.841,�k�k��,7.4,��
2017/12/08,21:00,0.881,1.451,0.920,1.724,1.173,0.492,0.874,0.842,�k�k��,8.1,��
2017/12/08,21:10,0.882,1.456,0.920,1.726,1.171,0.493,0.874,0.840,�k�k��,8.0,��
2017/12/08,21:20,0.882,1.452,0.919,1.726,1.175,0.494,0.873,0.841,�k�k��,8.5,��
2017/12/08,21:30,0.880,1.454,0.916,1.727,1.174,0.491,0.874,0.841,�k�k��,8.1,��
2017/12/08,21:40,0.880,1.452,0.920,1.728,1.173,0.492,0.876,0.842,�k�k��,7.4,��
2017/12/08,21:50,0.879,1.453,0.919,1.727,1.172,0.492,0.875,0.840,�k�k��,7.1,��
2017/12/08,22:00,0.879,1.453,0.919,1.726,1.171,0.491,0.876,0.843,�k�k��,7.6,��
2017/12/08,22:10,0.880,1.453,0.919,1.724,1.174,0.493,0.875,0.840,�k�k��,7.9,��
2017/12/08,22:20,0.880,1.454,0.919,1.727,1.172,0.491,0.874,0.839,�k�k��,5.1,��
2017/12/08,22:30,0.881,1.451,0.922,1.726,1.171,0.492,0.875,0.839,�k�k��,5.2,��
2017/12/08,22:40,0.879,1.454,0.918,1.729,1.174,0.492,0.875,0.840,�k�k��,6.2,��
2017/12/08,22:50,0.879,1.454,0.919,1.727,1.175,0.494,0.874,0.842,�k�k��,7.3,��
2017/12/08,23:00,0.880,1.453,0.920,1.726,1.174,0.491,0.876,0.841,�k�k��,6.6,��
2017/12/08,23:10,0.880,1.452,0.921,1.729,1.173,0.491,0.875,0.840,�k�k��,6.8,��
2017/12/08,23:20,0.881,1.452,0.919,1.728,1.174,0.493,0.875,0.841,�k�k��,8.9,��
2017/12/08,23:30,0.881,1.453,0.920,1.727,1.175,0.492,0.875,0.841,�k�k��,8.1,��
2017/12/08,23:40,0.881,1.455,0.920,1.729,1.172,0.492,0.877,0.840,�k�k��,8.0,��
2017/12/08,23:50,0.881,1.453,0.922,1.726,1.174,0.490,0.876,0.841,�k�k��,9.4,��
